Location: Berg
(48.4333°N, 13.9167°E)
Time: 08:03:08
(UTC+00:00)

Cosmos 1743 - Pass Details

Date: 18 September 2020
Orbit: 510 x 527 km, 82.6° (Epoch: 24 October)

Event Time Altitude Azimuth Distance (km) Brightness Sun altitude
Rises 17:41:07 0° 198° (SSW) 2,636 6.4 -6.0°
Reaches altitude 10° 17:43:17 10° 202° (SSW) 1,750 5.6 -6.3°
Maximum altitude 17:47:04 57° 282° (WNW) 618 3.5 -6.9°
Drops below altitude 10° 17:50:51 10° 2° (N) 1,755 5.5 -7.6°
Sets 17:53:01 0° 6° (N) 2,645 6.4 -7.9°
